sat.trackr.live / text

‹ back to catalog

SHIYAN-9 (SY-9)

NORAD 47851 · 2021-019A

PAYLOAD ACTIVE UNKNOWN

§ Identity

Operator
Country
PRC
Launch date
2021-03-11
Launch site
WSC
Launch vehicle
Mass (kg)
RCS (m²)

External: N2YO · Heavens-Above · Gunter

§ Orbital elements

Epoch: 2026-05-24T18:10:28.144416Z

Period
1,436.01 min
Inclination
16.5785°
Eccentricity
0.0014493
Mean motion
1.00278141 rev/d
Perigee alt
35,723.7 km
Apogee alt
35,845.9 km
Semi-major
42,163.0 km
B*
0.0000e+0
RAAN
302.7493°
Arg perigee
25.6909°
Mean anomaly
333.1870°
Rev number
2,389

§ Raw data

SHIYAN-9 (SY-9)1 47851U 21019A   26144.75727019 -.00000250  00000+0  00000+0 0  99992 47851  16.5785 302.7493 0014493  25.6909 333.1870  1.00278141 23890

JSON: /api/v1/satellites/47851 · /tle

For live sub-satellite position, see the globe view (requires WebGL).

§ Visibility from observer

Set your observer location to see the next 7 days of passes ≥ 10°. The values pass through the URL so the page stays shareable.

No JS? Fill the form by hand. The geolocation button needs JavaScript.